Regional Weather Roundup
Issued by NWS

Home | Current Version | Previous Version | Graphics & Text | Print | Product List | Glossary On
Versions: 1 2 3 4 5 6 7 8 9 10 11 12 13 14 15 16 17 18 19 20 21 22 23 24 25 26 27 28 29 30 31 32 33 34 35 36 37 38 39 40 41 42 43 44 45 46 47 48 49 50
000
ASUS43 KDTX 030610
RWRMI
MICHIGAN HOURLY REGIONAL WEATHER ROUNDUP
NATIONAL WEATHER SERVICE DETROIT/PONTIAC MI
200 AM EDT MON AUG 03 2015

NOTE: "FAIR" INDICATES FEW OR NO CLOUDS BELOW 12,000 FEET WITH NO
SIGNIFICANT WEATHER AND/OR OBSTRUCTION TO VISIBILITY.

MIZ047>049-052>055-059>063-066>070-074>076-081>083-030700-
SOUTHEAST LOWER MICHIGAN

CITY           SKY/WX    TMP DP  RH WIND       PRES   REMARKS
ADRIAN         LGT RAIN  63  62  97 SW12      29.80F
6HR MIN TEMP:  62; 6HR MAX TEMP:  84; 6HR PCP:  0.30;

ALMA           CLOUDY    63  63  99 SW3       29.69R
ANN ARBOR      TSTM      63  61  93 S14G23    29.72F
BAD AXE        CLOUDY    62  60  93 SW7       29.67S
6HR MIN TEMP:  61; 6HR MAX TEMP:  64;

CARO           CLOUDY    61  60  98 SW5       29.68F
DETROIT CITY   TSTM      63  61  93 S14       29.74F FOG
6HR MIN TEMP:  63; 6HR MAX TEMP:  87; 6HR PCP:  0.87;

DETROIT        TSTM      64  62  93 S17       29.77F FOG
6HR MIN TEMP:  63; 6HR MAX TEMP:  87; 6HR PCP:  0.67;

FLINT          CLOUDY    65  61  87 S7        29.69R
6HR MIN TEMP:  63; 6HR MAX TEMP:  69; 6HR PCP:  1.33;

GROSSE ILE     HVY RAIN  64  63  94 S14       29.78F
HILLSDALE      LGT RAIN  63  63 100 S9        29.74F
6HR MIN TEMP:  62; 6HR MAX TEMP:  84;

HOWELL         DRIZZLE   63  62  96 W7        29.69S
6HR MIN TEMP:  62; 6HR MAX TEMP:  85;


CITY           SKY/WX    TMP DP  RH WIND       PRES   REMARKS
JACKSON        CLOUDY    63  61  93 S13       29.72S THUNDER
6HR MIN TEMP:  62; 6HR MAX TEMP:  85; 6HR PCP:  1.04;

LAMBERTVILLE   RAIN      64  61  90 SE5       29.82F
6HR MIN TEMP:  64; 6HR MAX TEMP:  86;

LANSING        CLOUDY    63  61  93 SW9       29.70R
6HR MIN TEMP:  63; 6HR MAX TEMP:  86; 6HR PCP:  0.70;

LAPEER         CLOUDY    61  61  98 SW7       29.68R
MASON          CLOUDY    61  59  94 S7        29.69F
MONROE         RAIN      63  62  97 S5        29.79F
MT. CLEMENS    CLOUDY    64  63  96 S23G30    29.66F THUNDER
6HR MIN TEMP:  63; 6HR MAX TEMP:  87; 6HR PCP:  1.00;

PONTIAC        LGT RAIN  62  61  96 S9G25     29.67F
6HR MIN TEMP:  60; 6HR MAX TEMP:  85; 6HR PCP:  1.07;

PORT HURON     RAIN      61  61 100 S17       29.68F
TRI CITIES     CLOUDY    64  61  90 SW6       29.69R
6HR MIN TEMP:  62; 6HR MAX TEMP:  68; 6HR PCP:  1.50;

MIDLAND        CLOUDY    63  62  95 CALM      29.67S
6HR MIN TEMP:  62; 6HR MAX TEMP:  64; 6HR PCP:  0.54;

TROY           RAIN      63  63  98 S18G25    29.70F
SAGINAW HB     CLOUDY    63  61  94 S6        29.68S
$$
MIZ043>046-050>051-056>058-064>065-071>073-077>080-030700-
SOUTHWEST LOWER MICHIGAN

CITY           SKY/WX    TMP DP  RH WIND       PRES   REMARKS
BATTLE CREEK   CLOUDY    65  62  90 S10       29.74R
6HR MIN TEMP:  64; 6HR MAX TEMP:  86; 6HR PCP:  0.75;

BENTON HARBOR  CLOUDY    67  64  90 W8        29.73R
6HR MIN TEMP:  64; 6HR MAX TEMP:  87; 6HR PCP:  0.77;

BIG RAPIDS     CLOUDY    62  60  96 CALM      29.69S
6HR MIN TEMP:  61; 6HR MAX TEMP:  65; 6HR PCP:  0.08;

COLDWATER      LGT RAIN  63  61  94 SW12      29.78R
6HR MIN TEMP:  62; 6HR MAX TEMP:  82;

FREMONT        FAIR      61  61 100 CALM      29.70R
HOLLAND        CLOUDY    68  65  90 NW3       29.72R
6HR MIN TEMP:  66; 6HR MAX TEMP:  83; 6HR PCP:  0.74;

GRAND RAPIDS   CLOUDY    66  66 100 W7        29.70R
6HR MIN TEMP:  64; 6HR MAX TEMP:  86; 6HR PCP:  0.79;

IONIA          FAIR      64  63  94 W5        29.69R
6HR MIN TEMP:  64; 6HR MAX TEMP:  86; 6HR PCP:  0.57;

KALAMAZOO      CLOUDY    65  61  87 S8        29.74R
6HR MIN TEMP:  65; 6HR MAX TEMP:  86; 6HR PCP:  0.83;

LUDINGTON      FOG       61  59  92 CALM      29.70S VSB 1/4
6HR MIN TEMP:  61; 6HR MAX TEMP:  68;

MARSHALL       CLOUDY    64  61  92 SW7       29.72R
MOUNT PLEASANT CLOUDY    63  61  92 W3        29.68S
6HR MIN TEMP:  63; 6HR MAX TEMP:  71; 6HR PCP:  0.74;

MUSKEGON       CLOUDY    67  61  81 N3        29.71R
6HR MIN TEMP:  65; 6HR MAX TEMP:  79; 6HR PCP:  0.43;

SOUTH HAVEN    CLOUDY    68  65  90 NW5       29.73R
$$
MIZ016>042-030700-
NORTHERN LOWER MICHIGAN

CITY           SKY/WX    TMP DP  RH WIND       PRES   REMARKS
ALPENA         CLOUDY    62  60  93 W6        29.63R
6HR MIN TEMP:  62; 6HR MAX TEMP:  65; 6HR PCP:  0.02;

BEAVER ISLAND  FOG       55  54  97 CALM      29.66R VSB<1/4
6HR MIN TEMP:  54; 6HR MAX TEMP:  66;

BELLAIRE       PTCLDY    58  57  96 CALM      29.67S FOG
6HR MIN TEMP:  58; 6HR MAX TEMP:  63;

CADILLAC       FOG       55  55 100 CALM      29.70S VSB 1/4
CHARLEVOIX     CLEAR     63  59  87 W7        29.69R
6HR MIN TEMP:  62; 6HR MAX TEMP:  65;

FRANKFORT      FOG       56  56 100 CALM      29.68S VSB 1
GAYLORD        MOCLDY    62  62 100 W5        29.67S
6HR MIN TEMP:  60; 6HR MAX TEMP:  70;

GRAYLING       CLOUDY    58  57  98 W7        29.68F
6HR MIN TEMP:  58; 6HR MAX TEMP:  60;

HARBOR SPRINGS PTCLDY    59  58  98 CALM      29.65R
HOUGHTON LAKE  CLOUDY    59  58  96 NW6       29.68F
6HR MIN TEMP:  59; 6HR MAX TEMP:  62; 6HR PCP:  0.10;

MANISTEE       CLOUDY    57  54  88 CALM      29.70R VSB 1/4
OSCODA         CLOUDY    62  61  96 W9        29.63S
PELLSTON       PTCLDY    59  58  96 W5        29.65R
6HR MIN TEMP:  58; 6HR MAX TEMP:  64; 6HR PCP:  0.02;

ROGERS CITY    MOCLDY    63  62  96 W5        29.63R
TRAVERSE CITY  PTCLDY    60  58  92 CALM      29.65S
6HR MIN TEMP:  60; 6HR MAX TEMP:  62; 6HR PCP: TRACE;

$$
MIZ007>008-015-030700-
EASTERN UPPER MICHIGAN

CITY           SKY/WX    TMP DP  RH WIND       PRES   REMARKS
KINROSS        CLEAR     57  57 100 NW9       29.62R
6HR MIN TEMP:  57; 6HR MAX TEMP:  64;

MACKINAC ISLAN   N/A     60  59  97 NW6       29.63R
NEWBERRY       CLEAR     53  53  99 CALM      29.64R
6HR MIN TEMP:  53; 6HR MAX TEMP:  68;

S. S. MARIE    MOCLDY    60  57  89 NW7       29.61R
6HR MIN TEMP:  59; 6HR MAX TEMP:  68;

MUNISING         N/A     65  56  72 NW10      29.65R
6HR MIN TEMP:  58; 6HR MAX TEMP:  65;

$$
MIZ004>006-011>014-085-030700-
CENTRAL UPPER MICHIGAN

CITY           SKY/WX    TMP DP  RH WIND       PRES   REMARKS
MANISTIQUE     CLEAR     54  54 100 NW3       29.64R
ESCANABA       MOCLDY    59  55  88 W7        29.66S
6HR MIN TEMP:  59; 6HR MAX TEMP:  70;

MENOMINEE      CLEAR     63  55  77 CALM      29.69S
6HR MIN TEMP:  61; 6HR MAX TEMP:  66;

SAWYER-GWINN   CLEAR     55  52  89 CALM      29.69R
6HR MIN TEMP:  55; 6HR MAX TEMP:  66;

$$
MIZ001>003-009>011-084-030700-
WESTERN UPPER MICHIGAN

CITY           SKY/WX    TMP DP  RH WIND       PRES   REMARKS
IRON MOUNTAIN  PTCLDY    58  53  84 NW3       29.71R
6HR MIN TEMP:  56; 6HR MAX TEMP:  73;

HOUGHTON       CLOUDY    61  48  62 NW15G23   29.68R
6HR MIN TEMP:  58; 6HR MAX TEMP:  67;

COPPER HARBOR    N/A     63  51  65 N10       29.65R
6HR MIN TEMP:  62; 6HR MAX TEMP:  70;

IRONWOOD       CLOUDY    63  50  63 NW8       29.73S
6HR MIN TEMP:  57; 6HR MAX TEMP:  70;

$$

ABBREVIATIONS USED IN REMARKS
   TC - TEMPERATURE IN CELSIUS
  WCI - WIND CHILL INDEX
   HX - HEAT INDEX
  VSB - VISIBILITY



USA.gov is the U.S. government's official web portal to all federal, state and local government web resources and services.